FW0683 Weather Reports


time (UTC)temp
C
wind
direction
speed
KPH
gust
KPH
rain 1hr
cm
rain 24hr
cm
rain mn
cm
humidity
%
barometer
mb
20260904090100 17 62 0.0 0.0 0.00 0.94 0.00 95 1013.5
20260904084603 17 61 0.0 0.0 0.00 1.09 0.00 95 1013.5
20260904083110 17 62 0.0 0.0 0.00 1.09 0.00 95 1013.3
20260904081558 17 62 0.0 0.0 0.00 1.09 0.00 95 1013.5
20260904080056 17 62 0.0 0.0 0.00 1.09 0.00 95 1013.5
20260904074606 17 61 0.0 0.0 0.00 1.09 0.00 95 1013.7
20260904073053 17 62 0.0 0.0 0.00 1.09 0.00 95 1013.7
20260904071553 17 62 0.0 0.0 0.00 1.09 0.00 95 1013.9
20260904070105 17 62 0.0 0.0 0.00 1.09 0.00 95 1013.8
20260904064550 17 62 0.0 0.0 0.00 1.09 0.00 95 1014.1
20260904063055 17 62 0.0 0.0 0.00 1.09 0.00 94 1014.0
20260904061548 17 61 0.0 0.0 0.00 1.09 0.00 94 1014.3
20260904060047 17 62 0.0 0.0 0.00 1.09 0.00 94 1014.6
20260904054545 17 62 0.0 0.0 0.00 1.09 0.00 94 1014.7
20260904053044 17 62 0.0 0.0 0.00 1.09 0.00 94 1014.9
20260904051543 17 62 0.0 0.0 0.00 1.09 0.00 94 1015.0
20260904050042 17 61 0.0 0.0 0.00 1.09 0.00 94 1015.0
20260904044541 17 61 0.0 0.0 0.00 1.09 0.00 94 1015.0
20260904043038 17 62 0.0 0.0 0.00 1.09 0.00 94 1015.2
20260904041537 17 62 0.0 0.0 0.00 1.09 0.00 94 1015.5
20260904040035 17 62 0.0 0.0 0.00 1.09 1.09 94 1015.4
20260904034535 17 62 0.0 0.0 0.00 1.09 1.09 94 1015.5
20260904033036 17 62 0.0 0.0 0.00 1.09 1.09 94 1015.5
20260904031535 17 62 0.0 0.0 0.61 1.09 1.09 94 1015.8
20260904030036 17 62 0.0 0.0 0.61 1.09 1.09 94 1015.6
20260904024533 17 62 0.0 0.0 0.61 1.09 1.09 94 1015.7
20260904023037 17 60 0.0 0.0 0.61 1.09 1.09 94 1016.0
20260904021537 17 75 0.0 0.0 0.00 0.48 0.48 94 1016.6
20260904020032 17 72 0.0 0.0 0.00 0.48 0.48 94 1016.2
20260904014540 17 72 0.0 0.0 0.00 0.48 0.48 93 1016.3
20260904013037 17 71 0.0 0.0 0.00 0.48 0.48 93 1016.2
20260904011531 17 72 0.0 0.0 0.00 0.48 0.48 93 1016.1
20260904010030 17 345 0.0 0.0 0.00 0.48 0.48 93 1015.9
20260904004529 17 346 0.0 0.0 0.00 0.48 0.48 93 1016.0
20260904003029 17 346 0.0 0.0 0.00 0.48 0.48 93 1016.1
20260904001531 17 346 0.0 0.0 0.00 0.48 0.48 92 1015.7
20260904000028 17 346 0.0 0.0 0.00 0.48 0.48 92 1015.5
20260903234526 18 345 0.0 0.0 0.00 0.48 0.48 92 1015.4
20260903233025 18 346 0.0 0.0 0.00 0.48 0.48 91 1015.4
20260903231527 18 345 0.0 0.0 0.00 0.48 0.48 91 1015.5
20260903230027 19 346 0.0 0.0 0.00 0.48 0.48 90 1015.3
20260903224522 20 346 0.0 0.0 0.00 0.48 0.48 90 1015.6
20260903223025 20 346 0.0 0.0 0.00 0.48 0.48 89 1015.8
20260903221524 20 345 0.0 0.0 0.00 0.48 0.48 88 1015.7
20260903220020 20 108 0.0 0.0 0.00 0.48 0.48 87 1015.7
20260903214518 21 110 0.0 0.0 0.00 0.48 0.48 87 1015.8
20260903213018 21 110 0.0 0.0 0.00 0.48 0.48 85 1015.9
20260903211517 21 110 0.0 0.0 0.00 0.48 0.48 85 1016.0
20260903210017 21 110 0.0 0.0 0.00 0.48 0.48 86 1015.9
20260903204517 21 88 0.0 0.0 0.00 0.48 0.48 86 1015.7
20260903203013 21 95 0.0 0.0 0.00 0.48 0.48 87 1016.0
20260903201512 21 101 0.0 0.0 0.00 0.48 0.48 87 1016.0
20260903200011 21 101 0.0 0.0 0.00 0.48 0.48 88 1016.2
20260903194509 21 101 0.0 0.0 0.00 0.48 0.48 87 1016.4
20260903193008 21 101 0.0 0.0 0.00 0.48 0.48 87 1016.4
20260903191508 21 101 0.0 0.0 0.00 0.48 0.48 88 1016.4
20260903190007 21 101 0.0 0.0 0.00 0.48 0.48 87 1016.4
20260903184505 21 36 0.0 0.0 0.00 0.48 0.48 86 1016.6
20260903183004 21 44 0.0 0.0 0.00 0.48 0.48 88 1016.7
20260903181502 20 70 0.0 0.0 0.00 0.48 0.48 88 1016.9
20260903180001 20 82 0.0 0.0 0.00 0.48 0.48 87 1017.1
20260903174559 20 41 0.0 0.0 0.00 0.48 0.48 91 1017.0
20260903173100 20 41 0.0 0.0 0.00 0.48 0.48 90 1016.9
20260903171557 19 45 0.0 0.0 0.00 0.48 0.48 91 1016.9
20260903170056 19 45 0.0 0.0 0.00 0.48 0.48 90 1017.0
20260903164554 19 37 0.0 0.0 0.00 0.48 0.48 91 1017.1
20260903163052 19 52 0.0 0.0 0.00 0.48 0.48 91 1017.1
20260903161552 19 93 0.0 0.0 0.00 0.48 0.48 92 1017.1
20260903160048 18 106 0.0 0.0 0.00 0.48 0.48 92 1017.4
20260903154545 18 34 0.0 0.0 0.00 0.48 0.48 93 1017.9
20260903153044 18 34 0.0 0.0 0.00 0.48 0.48 93 1018.2
20260903151546 18 34 0.0 0.0 0.00 0.48 0.48 93 1018.1
20260903144539 18 62 0.0 0.0 0.00 0.48 0.48 94 1018.4
20260903143036 17 62 0.0 0.0 0.00 0.48 0.48 94 1018.5
20260903141540 17 65 0.0 0.0 0.00 0.48 0.48 94 1018.7
20260903140040 17 65 0.0 0.0 0.00 0.48 0.48 94 1018.8
20260903134533 17 65 0.0 0.0 0.03 0.48 0.48 94 1018.6
20260903133035 17 63 0.0 0.0 0.03 0.48 0.48 94 1018.9
20260903131531 17 63 0.0 0.0 0.03 0.48 0.48 94 1018.9
20260903130031 17 85 0.0 0.0 0.03 0.48 0.48 94 1018.9
20260903124533 16 85 0.0 0.0 0.03 0.46 0.46 94 1019.2
20260903123033 16 85 0.0 0.0 0.05 0.46 0.46 94 1019.4
20260903121528 16 85 0.0 0.0 0.05 0.46 0.46 94 1019.5
20260903120025 16 85 0.0 0.0 0.05 0.46 0.46 94 1019.6
20260903114524 16 85 0.0 0.0 0.05 0.43 0.43 94 1019.9
20260903113026 16 85 0.0 0.0 0.05 0.41 0.41 94 1019.8
20260903111523 16 85 0.0 0.0 0.05 0.41 0.41 94 1019.9
20260903110022 16 85 0.0 0.0 0.08 0.41 0.41 94 1019.7
20260903104522 16 86 0.0 0.0 0.08 0.38 0.38 93 1019.7
20260903103022 16 352 0.0 0.0 0.08 0.36 0.36 93 1019.7
20260903101521 16 352 0.0 0.0 0.13 0.36 0.36 93 1019.8
20260903100027 16 352 0.0 0.0 0.18 0.33 0.33 93 1019.7
20260903094520 16 352 0.0 0.0 0.30 0.30 0.30 93 1020.0
20260903093020 16 352 0.0 0.0 0.28 0.28 0.28 92 1020.0